FW3988 Weather Reports


time (UTC)temp
C
wind
direction
speed
KPH
gust
KPH
rain 1hr
cm
rain 24hr
cm
rain mn
cm
humidity
%
barometer
mb
20260903123031 27 32 1.6 3.2 0.00 0.00 0.00 79 1011.9
20260903121601 27 32 0.0 6.4 0.00 0.00 0.00 79 1011.7
20260903120139 27 32 1.6 4.8 0.00 0.00 0.00 79 1011.6
20260903114552 27 18 4.8 9.7 0.00 0.00 0.00 79 1011.5
20260903113022 27 5 3.2 8.0 0.00 0.00 0.00 78 1011.5
20260903111501 27 51 3.2 6.4 0.00 0.00 0.00 79 1011.6
20260903110146 27 10 3.2 6.4 0.00 0.00 0.00 80 1011.6
20260903104526 27 27 3.2 6.4 0.00 0.00 0.00 80 1011.5
20260903103012 27 5 3.2 6.4 0.00 0.00 0.00 80 1011.5
20260903101545 27 37 3.2 6.4 0.00 0.00 0.00 80 1011.5
20260903100138 27 39 1.6 6.4 0.00 0.00 0.00 80 1011.7
20260903094518 27 34 3.2 8.0 0.00 0.00 0.00 80 1011.7
20260903093031 27 51 3.2 6.4 0.00 0.00 0.00 80 1011.9
20260903091500 27 39 1.6 4.8 0.00 0.00 0.00 80 1012.1
20260903090004 27 38 0.0 4.8 0.00 0.00 0.00 82 1012.1
20260903084550 26 49 3.2 6.4 0.00 0.00 0.00 82 1012.2
20260903083026 27 344 1.6 6.4 0.00 0.00 0.00 81 1012.2
20260903081516 27 21 3.2 8.0 0.00 0.00 0.00 80 1012.3
20260903080154 27 45 3.2 11.3 0.00 0.00 0.00 78 1012.4
20260903074535 28 49 6.4 9.7 0.00 0.00 0.00 75 1012.3
20260903073014 28 71 1.6 8.0 0.00 0.00 0.00 75 1012.3
20260903071605 28 98 0.0 6.4 0.00 0.00 0.00 76 1012.3
20260903070009 28 58 1.6 4.8 0.00 0.00 0.00 76 1012.6
20260903064552 28 57 1.6 6.4 0.00 0.10 0.00 76 1012.7
20260903063010 28 54 3.2 6.4 0.00 0.10 0.00 75 1012.8
20260903061544 28 329 1.6 4.8 0.00 0.10 0.00 74 1012.9
20260903060133 28 331 3.2 4.8 0.00 0.10 0.00 75 1012.8
20260903054536 28 11 0.0 8.0 0.00 0.10 0.00 76 1012.9
20260903053012 28 13 4.8 8.0 0.00 0.10 0.00 77 1012.9
20260903051600 28 351 3.2 8.0 0.00 0.10 0.00 77 1012.9
20260903050139 28 46 1.6 8.0 0.00 0.10 0.00 77 1013.0
20260903044515 27 17 1.6 9.7 0.00 0.10 0.00 77 1013.1
20260903043100 28 12 1.6 9.7 0.00 0.10 0.00 78 1013.1
20260903043002 28 13 3.2 12.9 0.00 0.10 0.00 78 1013.1
20260903041544 27 26 3.2 16.1 0.00 0.10 0.00 78 1013.3
20260903040133 27 45 3.2 17.7 0.00 0.10 0.00 79 1013.4
20260903034508 27 50 4.8 14.5 0.00 0.10 0.00 81 1013.5
20260903033059 27 23 9.7 16.1 0.00 0.10 0.00 81 1013.6
20260903031555 27 19 8.0 17.7 0.00 0.10 0.00 81 1013.6
20260903030142 27 30 6.4 19.3 0.00 0.10 0.00 81 1013.7
20260903024522 27 42 9.7 17.7 0.00 0.10 0.00 82 1013.4
20260903023015 27 48 8.0 19.3 0.00 0.10 0.00 82 1013.2
20260903021507 27 23 12.9 24.1 0.00 0.10 0.00 80 1013.0
20260903020148 28 16 9.7 19.3 0.00 0.10 0.00 78 1012.9
20260903014542 29 38 11.3 17.7 0.00 0.10 0.00 74 1012.8
20260903013008 30 36 12.9 25.7 0.00 0.10 0.00 70 1012.7
20260903011545 31 28 11.3 20.9 0.00 0.10 0.00 68 1012.6
20260903010138 32 9 6.4 16.1 0.00 0.10 0.00 65 1012.6
20260903004527 32 248 1.6 8.0 0.00 0.10 0.00 73 1012.5
20260903003014 32 232 3.2 12.9 0.00 0.10 0.00 73 1012.3
20260903001602 33 219 0.0 8.0 0.00 0.10 0.00 70 1012.2
20260903000023 33 226 3.2 11.3 0.00 0.10 0.00 70 1012.2
20260902234602 32 217 6.4 11.3 0.00 0.10 0.00 71 1012.0
20260902233047 33 263 3.2 16.1 0.00 0.10 0.00 71 1011.6
20260902231543 33 192 6.4 16.1 0.00 0.10 0.00 70 1011.2
20260902230006 33 188 9.7 16.1 0.00 0.10 0.00 70 1011.0
20260902224504 33 222 6.4 17.7 0.00 0.10 0.00 70 1011.0
20260902223104 33 216 8.0 19.3 0.00 0.10 0.00 68 1011.2
20260902221547 34 217 8.0 14.5 0.00 0.10 0.00 67 1011.3
20260902220144 34 187 4.8 17.7 0.00 0.10 0.00 66 1011.3
20260902214539 34 236 8.0 20.9 0.00 0.10 0.00 67 1011.2
20260902213038 33 232 11.3 19.3 0.00 0.10 0.00 68 1011.1
20260902211532 34 225 9.7 17.7 0.00 0.10 0.00 65 1011.2
20260902210132 34 254 6.4 16.1 0.00 0.10 0.00 66 1011.0
20260902204514 34 232 9.7 17.7 0.00 0.10 0.00 66 1011.0
20260902203010 34 225 11.3 19.3 0.00 0.10 0.00 66 1011.3
20260902201553 34 206 12.9 17.7 0.00 0.10 0.00 64 1011.6
20260902200136 34 259 8.0 14.5 0.00 0.10 0.00 66 1011.6
20260902194535 34 265 6.4 14.5 0.00 0.10 0.00 66 1011.8
20260902193013 34 284 4.8 14.5 0.00 0.10 0.00 67 1012.2
20260902191603 33 233 8.0 17.7 0.00 0.10 0.00 68 1012.3
20260902190148 33 286 11.3 20.9 0.00 0.10 0.00 68 1012.4
20260902184533 33 288 8.0 14.5 0.00 0.10 0.00 68 1012.5
20260902183023 34 295 6.4 16.1 0.00 0.10 0.00 66 1012.5
20260902181557 33 252 6.4 14.5 0.00 0.10 0.00 67 1012.4
20260902180138 33 287 6.4 14.5 0.00 0.10 0.00 67 1012.5
20260902174519 33 271 6.4 14.5 0.00 0.10 0.00 67 1012.6
20260902173004 33 300 4.8 14.5 0.00 0.10 0.00 64 1012.8
20260902171600 33 313 8.0 12.9 0.00 0.10 0.00 65 1012.8
20260902170146 32 260 6.4 14.5 0.00 0.10 0.00 67 1012.9
20260902164530 32 302 8.0 12.9 0.00 0.10 0.00 67 1012.8
20260902163004 32 313 4.8 11.3 0.00 0.10 0.00 67 1012.7
20260902161554 32 327 1.6 8.0 0.00 0.10 0.00 69 1012.8
20260902160134 31 306 3.2 8.0 0.00 0.10 0.00 70 1013.0
20260902154529 31 295 3.2 12.9 0.00 0.10 0.00 70 1013.0
20260902153021 30 18 4.8 8.0 0.00 0.10 0.00 71 1013.0
20260902151605 30 18 1.6 4.8 0.00 0.10 0.00 72 1013.1
20260902150010 30 360 1.6 3.2 0.00 0.10 0.00 74 1013.3
20260902144544 28 355 1.6 8.0 0.00 0.10 0.00 75 1013.3
20260902143035 28 26 1.6 6.4 0.00 0.10 0.00 78 1013.3
20260902141535 27 47 6.4 8.0 0.00 0.10 0.00 80 1013.2
20260902140129 27 24 6.4 9.7 0.00 0.10 0.00 82 1013.2
20260902134518 27 34 3.2 6.4 0.00 0.10 0.00 83 1013.1
20260902133107 26 23 3.2 12.9 0.00 0.10 0.00 85 1013.0
20260902131548 26 62 6.4 11.3 0.00 0.10 0.00 87 1012.8
20260902130136 26 46 4.8 14.5 0.00 0.10 0.00 87 1012.8
20260902124526 26 41 3.2 14.5 0.00 0.10 0.00 87 1012.9